{"data":{"norad_id":62224,"intl_designator":"2024-231G","name":"STARLINK-11492 [DTC]","alt_names":[],"object_type":"PAYLOAD","status":"ACTIVE","operator":null,"country":"US","launch_date":"2024-12-05","launch_site_code":"AFWTR","launch_vehicle":null,"mission":null,"orbit_class":"UNKNOWN","rcs_meters":null,"size_class":null,"mass_kg":null,"dimensions":null,"purposes":["comms"],"wikipedia_slug":null,"has_3d_model":false,"image_url":null,"decayed_at":null,"tle_current":{"epoch":"2026-09-21T06:03:33.737184Z","epoch_age_seconds":113211,"freshness":"FRESH","line1":"1 62224U 24231G   26264.25247381  .00115109  00000+0  94077-3 0  9996","line2":"2 62224  53.1557 217.4592 0001074  94.7129 265.4011 15.69737567104121","mean_motion":15.69737567,"eccentricity":0.0001074,"inclination_deg":53.1557,"raan_deg":217.4592,"arg_perigee_deg":94.7129,"mean_anomaly_deg":265.4011,"bstar":0.00094077,"rev_number":10412,"period_min":91.73507917964,"perigee_km":358.9242272778,"apogee_km":360.37150346688,"semimajor_km":6737.7848653723,"source":"CELESTRAK","updated_at":"2026-09-22T09:00:49.562506Z"}}}